Regional Weather Roundup
Issued by NWS

Home | Current Version | Previous Version | Graphics & Text | Print | Product List | Glossary On
Versions: 1 2 3 4 5 6 7 8 9 10 11 12 13 14 15 16 17 18 19 20 21 22 23 24 25 26 27 28 29 30 31 32 33 34 35 36 37 38 39 40 41 42 43 44 45 46 47 48 49 50
665
ASUS43 KIND 251609
RWRIN

WEATHER ROUNDUP FOR INDIANA
NATIONAL WEATHER SERVICE INDIANAPOLIS IN
1200 PM EDT SUN JUN 25 2017

NOTE: "FAIR" INDICATES FEW OR NO CLOUDS BELOW 12,000 FEET WITH NO
SIGNIFICANT WEATHER AND/OR OBSTRUCTIONS TO VISIBILITY.

* - STATION DOES NOT REPORT WEATHER SUCH AS PRECIPITATION OR FOG.

+ - STATION NOT QUALITY CONTROLLED BY THE NATIONAL WEATHER SERVICE.
    USE DATA WITH CAUTION...ESPECIALLY DEWPOINT AND RELATIVE
    HUMIDITY OBSERVATIONS.

INZ001>003-010>013-019-020-251700-
NORTHWEST INDIANA

CITY           SKY/WX    TMP DP  RH WIND       PRES   REMARKS
GARY /AIRPORT/ MOSUNNY   68  43  40 W20G32    30.12S
KNOX *+        PTSUNNY   68  36  30 W16G22    30.12R
LA PORTE +     MOSUNNY   67  46  46 NW14G22   30.12S
MICHIGAN CITY+ MOSUNNY   66  48  52 W10G16    30.12S
MONTICELLO +   MOSUNNY   69  44  41 W16G23    30.14R
VALPARAISO     MOSUNNY   70  47  43 W15G23    30.12S

$$

LMZ046-743>745-251700-
SOUTHERN LAKE MICHIGAN

STATION/POSITION TIME  TEMP    WIND        PRES    WAVE
                       AIR SEA DIR/SP/G            HT
                 (UTC) (F)     (DEG/KT/KT) (MB)    (FT)
BURNS HARBOR     1540   64     280/ 13/ 15 1020.0S
MICHIGAN CITY    1540   62     250/ 15/ 17   N/A
5NW MICH CITY    1600   63 67  280/ 12/ 16   N/A     3

$$

INZ004-005-014>016-021>024-251700-
NORTH CENTRAL INDIANA

CITY           SKY/WX    TMP DP  RH WIND       PRES   REMARKS
ELKHART        MOSUNNY  N/A N/A N/A W14       30.07S
GOSHEN         PTSUNNY   66  45  46 W17       30.10S
LOGANSPORT +   MOSUNNY   66  45  45 W14G20    30.15R
PERU/GRISSOM   SUNNY     68  46  45 NW16      30.14R
ROCHESTER +    MOSUNNY   70  46  43 W17       30.13R
SOUTH BEND     MOSUNNY   66  45  46 W17G26    30.10S
WARSAW +       MOSUNNY   66  45  45 W17G25    30.12R

$$

INZ006>009-017-018-025>027-251700-
NORTHEAST INDIANA

CITY           SKY/WX    TMP DP  RH WIND       PRES   REMARKS
AUBURN +       MOSUNNY   66  45  45 W15       30.10S
FORT WAYNE     MOSUNNY   67  48  50 W14G24    30.12R
HUNTINGTON +   MOSUNNY   66  46  47 W10       30.12S
KENDALLVILLE + PTSUNNY   66  46  47 W13G18    30.10S

$$

INZ028-029-035-036-043>045-051>053-251700-
WEST CENTRAL INDIANA

CITY           SKY/WX    TMP DP  RH WIND       PRES   REMARKS
CRAWFORDSVL +  SUNNY     67  49  52 NW13      30.17R
GREENCASTLE +  SUNNY     70  46  43 NW7       30.18S
LAFAYETTE      SUNNY     69  48  47 W17G23    30.15R
TERRE HAUTE    SUNNY     73  51  46 W7        30.18R

$$

INZ030>032-037>040-046>048-054>057-064-065-251700-
CENTRAL INDIANA

CITY           SKY/WX    TMP DP  RH WIND       PRES   REMARKS
CP ATTERBURY + SUNNY     72  50  46 W13G21    30.17S
COLUMBUS       MOSUNNY   72  46  40 W13G23    30.17S
FRANKFORT +    PTSUNNY   71  49  46 W15G21    30.18R
GREENWOOD *+   SUNNY     70  48  45 NW9       30.17S
INDIANAPOLIS   MOSUNNY   71  49  45 W14G20    30.16S
-EAGLE CREEK   SUNNY     70  48  45 NW10      30.16R
KOKOMO +       SUNNY     68  46  45 W18G24    30.16R
MARION +       SUNNY     66  45  45 W17       30.16R HAZE
MT COMFORT *+  SUNNY     70  50  49 W10G16    30.16S
SHELBYVILLE    SUNNY     73  50  44 W10       30.16R
ZIONSVILLE +   SUNNY     67  49  53 W10       30.17S

$$

INZ033-034-041-042-049-050-058-059-251700-
EAST CENTRAL INDIANA

CITY           SKY/WX    TMP DP  RH WIND       PRES   REMARKS
MUNCIE         SUNNY     70  48  45 W10G18    30.15R
RICHMOND +     SUNNY     68  50  52 W18G25    30.16R

$$

INZ060-061-067>069-081>083-085>088-251700-
SOUTHWEST INDIANA

CITY           SKY/WX    TMP DP  RH WIND       PRES   REMARKS
EVANSVILLE     SUNNY     79  49  34 W10       30.21S
HUNTINGBURG *+ SUNNY     77  50  38 W15G25    30.20F
WASHINGTON +   SUNNY     75  50  41 W15       30.18F

$$

INZ062-063-066-070>080-084-089>092-251700-
SOUTH CENTRAL AND SOUTHEAST INDIANA

CITY           SKY/WX    TMP DP  RH WIND       PRES   REMARKS
BEDFORD +      SUNNY     75  48  38 W13G21    30.18S
BLOOMINGTON    SUNNY     73  50  44 W10       30.18R
MADISON *+     SUNNY     77  45  31 SW10      30.20F
NORTH VERNON + SUNNY     72  52  49 W14       30.18S
SEYMOUR +      SUNNY     77  52  41 W16G25    30.18S

$$





USA.gov is the U.S. government's official web portal to all federal, state and local government web resources and services.